Time,TemperatureF,DewpointF,PressureIn,WindDirection,WindDirectionDegrees,WindSpeedMPH,WindSpeedGustMPH,Humidity,HourlyPrecipIn,Conditions,Clouds,dailyrainin,SoftwareType,DateUTC
2013-06-30 00:10:00,68.1,67.0,29.63,West,270,0.0,0.0,96,0.00,,,0.14,weatherlink.com 1.10,2013-06-30 04:10:00,
2013-06-30 00:25:00,68.1,67.0,29.63,West,270,0.0,0.0,96,0.00,,,0.14,weatherlink.com 1.10,2013-06-30 04:25:00,
2013-06-30 00:40:00,68.0,67.0,29.63,West,270,0.0,0.0,96,0.00,,,0.00,weatherlink.com 1.10,2013-06-30 04:40:00,
2013-06-30 00:55:00,68.0,67.0,29.63,West,270,0.0,0.0,96,0.00,,,0.00,weatherlink.com 1.10,2013-06-30 04:55:00,
2013-06-30 01:10:00,67.9,67.0,29.64,West,270,0.0,1.0,97,0.00,,,0.00,weatherlink.com 1.10,2013-06-30 05:10:00,
2013-06-30 01:25:00,67.7,67.0,29.64,West,270,0.0,0.0,97,0.00,,,0.00,weatherlink.com 1.10,2013-06-30 05:25:00,
2013-06-30 01:40:00,67.7,67.0,29.65,West,270,0.0,1.0,97,0.00,,,0.00,weatherlink.com 1.10,2013-06-30 05:40:00,
2013-06-30 01:55:00,67.6,67.0,29.66,South,174,3.0,3.0,97,0.00,,,0.00,weatherlink.com 1.10,2013-06-30 05:55:00,
2013-06-30 02:10:00,67.3,67.0,29.66,South,182,0.0,3.0,97,0.00,,,0.00,weatherlink.com 1.10,2013-06-30 06:10:00,
2013-06-30 02:25:00,67.0,66.0,29.65,South,182,0.0,2.0,96,0.00,,,0.00,weatherlink.com 1.10,2013-06-30 06:25:00,
2013-06-30 02:40:00,66.7,65.0,29.64,South,178,0.0,2.0,94,0.00,,,0.00,weatherlink.com 1.10,2013-06-30 06:40:00,
2013-06-30 02:55:00,66.5,65.0,29.64,South,174,0.0,3.0,94,0.00,,,0.00,weatherlink.com 1.10,2013-06-30 06:55:00,
2013-06-30 03:10:00,66.3,65.0,29.63,South,174,0.0,0.0,94,0.00,,,0.00,weatherlink.com 1.10,2013-06-30 07:10:00,
2013-06-30 03:25:00,65.8,64.0,29.64,South,174,0.0,1.0,94,0.00,,,0.00,weatherlink.com 1.10,2013-06-30 07:25:00,
2013-06-30 03:40:00,65.4,64.0,29.63,South,174,0.0,0.0,95,0.00,,,0.00,weatherlink.com 1.10,2013-06-30 07:40:00,
2013-06-30 03:55:00,65.0,64.0,29.63,South,174,0.0,0.0,95,0.00,,,0.00,weatherlink.com 1.10,2013-06-30 07:55:00,
2013-06-30 04:10:00,64.8,63.0,29.63,South,174,0.0,0.0,95,0.00,,,0.00,weatherlink.com 1.10,2013-06-30 08:10:00,
2013-06-30 04:25:00,64.5,63.0,29.63,South,174,0.0,0.0,96,0.00,,,0.00,weatherlink.com 1.10,2013-06-30 08:25:00,
2013-06-30 04:40:00,64.3,63.0,29.63,South,174,0.0,0.0,96,0.00,,,0.00,weatherlink.com 1.10,2013-06-30 08:40:00,
2013-06-30 04:55:00,64.3,63.0,29.64,South,174,0.0,0.0,96,0.00,,,0.00,weatherlink.com 1.10,2013-06-30 08:55:00,
2013-06-30 05:10:00,64.3,63.0,29.65,South,189,0.0,0.0,96,0.00,,,0.00,weatherlink.com 1.10,2013-06-30 09:10:00,
2013-06-30 05:25:00,64.4,64.0,29.66,South,188,0.0,0.0,97,0.00,,,0.00,weatherlink.com 1.10,2013-06-30 09:25:00,
2013-06-30 05:40:00,64.5,64.0,29.66,South,188,0.0,0.0,97,0.00,,,0.00,weatherlink.com 1.10,2013-06-30 09:40:00,
2013-06-30 05:55:00,64.6,64.0,29.66,South,189,0.0,0.0,97,0.00,,,0.00,weatherlink.com 1.10,2013-06-30 09:55:00,
2013-06-30 06:10:00,64.7,64.0,29.66,South,189,0.0,0.0,97,0.00,,,0.00,weatherlink.com 1.10,2013-06-30 10:10:00,
2013-06-30 06:25:00,64.5,64.0,29.67,South,189,0.0,0.0,97,0.00,,,0.00,weatherlink.com 1.10,2013-06-30 10:25:00,
2013-06-30 06:40:00,64.5,64.0,29.68,South,188,0.0,0.0,97,0.00,,,0.00,weatherlink.com 1.10,2013-06-30 10:40:00,
2013-06-30 06:55:00,64.5,64.0,29.68,South,189,0.0,0.0,97,0.00,,,0.00,weatherlink.com 1.10,2013-06-30 10:55:00,
2013-06-30 07:10:00,64.8,64.0,29.69,SSW,192,0.0,1.0,97,0.00,,,0.00,weatherlink.com 1.10,2013-06-30 11:10:00,
2013-06-30 07:25:00,64.8,64.0,29.70,SSW,192,0.0,0.0,97,0.00,,,0.00,weatherlink.com 1.10,2013-06-30 11:25:00,
2013-06-30 07:41:00,64.9,64.0,29.70,South,190,1.0,2.0,97,0.00,,,0.00,weatherlink.com 1.10,2013-06-30 11:41:00,
2013-06-30 07:56:00,65.5,65.0,29.70,South,175,2.0,2.0,97,0.00,,,0.00,weatherlink.com 1.10,2013-06-30 11:56:00,
2013-06-30 08:11:00,65.7,65.0,29.71,South,178,0.0,1.0,96,0.00,,,0.00,weatherlink.com 1.10,2013-06-30 12:11:00,
2013-06-30 08:26:00,66.3,65.0,29.71,SSW,211,0.0,1.0,95,0.00,,,0.00,weatherlink.com 1.10,2013-06-30 12:26:00,
2013-06-30 08:41:00,66.9,65.0,29.71,NW,304,0.0,1.0,94,0.00,,,0.00,weatherlink.com 1.10,2013-06-30 12:41:00,
2013-06-30 08:56:00,67.5,66.0,29.71,ESE,103,0.0,3.0,93,0.00,,,0.00,weatherlink.com 1.10,2013-06-30 12:56:00,
2013-06-30 09:11:00,68.6,65.0,29.71,South,175,0.0,4.0,89,0.00,,,0.00,weatherlink.com 1.10,2013-06-30 13:11:00,
2013-06-30 09:26:00,69.3,66.0,29.72,WNW,291,0.0,3.0,88,0.00,,,0.00,weatherlink.com 1.10,2013-06-30 13:26:00,
2013-06-30 09:41:00,71.2,67.0,29.72,WSW,247,0.0,2.0,87,0.00,,,0.00,weatherlink.com 1.10,2013-06-30 13:41:00,
2013-06-30 09:56:00,71.9,67.0,29.72,SE,128,0.0,3.0,83,0.00,,,0.00,weatherlink.com 1.10,2013-06-30 13:56:00,
2013-06-30 10:11:00,71.8,66.0,29.72,SSW,195,0.0,3.0,83,0.00,,,0.00,weatherlink.com 1.10,2013-06-30 14:11:00,
2013-06-30 10:26:00,72.0,66.0,29.72,SSW,196,0.0,2.0,82,0.00,,,0.00,weatherlink.com 1.10,2013-06-30 14:26:00,
2013-06-30 10:41:00,72.1,67.0,29.73,West,281,0.0,2.0,83,0.00,,,0.00,weatherlink.com 1.10,2013-06-30 14:41:00,
2013-06-30 10:56:00,71.6,67.0,29.73,SSW,197,0.0,1.0,85,0.00,,,0.00,weatherlink.com 1.10,2013-06-30 14:56:00,
2013-06-30 11:11:00,72.8,66.0,29.73,South,181,2.0,3.0,79,0.00,,,0.00,weatherlink.com 1.10,2013-06-30 15:11:00,
2013-06-30 11:26:00,74.0,66.0,29.73,ENE,64,1.0,3.0,76,0.00,,,0.00,weatherlink.com 1.10,2013-06-30 15:26:00,
2013-06-30 11:41:00,74.9,66.0,29.73,South,186,0.0,4.0,73,0.00,,,0.00,weatherlink.com 1.10,2013-06-30 15:41:00,
2013-06-30 11:56:00,76.4,67.0,29.72,South,190,0.0,6.0,73,0.00,,,0.00,weatherlink.com 1.10,2013-06-30 15:56:00,
2013-06-30 12:11:00,76.8,65.0,29.73,South,188,0.0,3.0,68,0.00,,,0.00,weatherlink.com 1.10,2013-06-30 16:11:00,
2013-06-30 12:26:00,76.4,67.0,29.73,East,95,0.0,4.0,72,0.00,,,0.00,weatherlink.com 1.10,2013-06-30 16:26:00,
2013-06-30 12:41:00,77.0,66.0,29.73,South,178,1.0,7.0,69,0.00,,,0.00,weatherlink.com 1.10,2013-06-30 16:41:00,
2013-06-30 12:56:00,78.0,65.0,29.73,South,170,1.0,4.0,65,0.00,,,0.00,weatherlink.com 1.10,2013-06-30 16:56:00,
2013-06-30 13:11:00,78.6,65.0,29.73,South,171,1.0,4.0,63,0.00,,,0.00,weatherlink.com 1.10,2013-06-30 17:11:00,
2013-06-30 13:26:00,78.8,67.0,29.73,SSE,165,2.0,5.0,67,0.00,,,0.00,weatherlink.com 1.10,2013-06-30 17:26:00,
2013-06-30 13:41:00,78.9,67.0,29.73,South,180,3.0,6.0,66,0.00,,,0.00,weatherlink.com 1.10,2013-06-30 17:41:00,
2013-06-30 13:56:00,79.7,65.0,29.73,SSW,193,3.0,7.0,62,0.00,,,0.00,weatherlink.com 1.10,2013-06-30 17:56:00,
2013-06-30 14:11:00,79.1,65.0,29.73,West,270,2.0,5.0,63,0.00,,,0.00,weatherlink.com 1.10,2013-06-30 18:11:00,
2013-06-30 14:26:00,79.6,65.0,29.72,South,182,1.0,6.0,62,0.00,,,0.00,weatherlink.com 1.10,2013-06-30 18:26:00,
2013-06-30 14:41:00,79.7,65.0,29.72,South,171,0.0,6.0,61,0.00,,,0.00,weatherlink.com 1.10,2013-06-30 18:41:00,
2013-06-30 14:56:00,80.0,65.0,29.71,WNW,295,2.0,7.0,61,0.00,,,0.00,weatherlink.com 1.10,2013-06-30 18:56:00,
2013-06-30 15:11:00,80.3,64.0,29.71,SSE,165,0.0,5.0,58,0.00,,,0.00,weatherlink.com 1.10,2013-06-30 19:11:00,
2013-06-30 15:26:00,82.4,66.0,29.71,SSE,166,4.0,4.0,58,0.00,,,0.00,weatherlink.com 1.10,2013-06-30 19:26:00,
2013-06-30 15:41:00,80.4,65.0,29.71,South,188,0.0,3.0,60,0.00,,,0.00,weatherlink.com 1.10,2013-06-30 19:41:00,
2013-06-30 15:56:00,80.2,64.0,29.71,SSW,209,0.0,2.0,58,0.00,,,0.00,weatherlink.com 1.10,2013-06-30 19:56:00,
2013-06-30 16:11:00,80.0,65.0,29.72,SW,216,0.0,2.0,60,0.00,,,0.00,weatherlink.com 1.10,2013-06-30 20:11:00,
2013-06-30 16:27:00,79.0,65.0,29.72,North,355,0.0,4.0,63,0.00,,,0.00,weatherlink.com 1.10,2013-06-30 20:27:00,
2013-06-30 16:42:00,77.9,66.0,29.72,NNE,23,1.0,9.0,67,0.00,,,0.00,weatherlink.com 1.10,2013-06-30 20:42:00,
2013-06-30 16:57:00,77.8,66.0,29.72,North,350,1.0,5.0,68,0.00,,,0.00,weatherlink.com 1.10,2013-06-30 20:57:00,
2013-06-30 17:12:00,77.7,67.0,29.72,North,5,0.0,2.0,69,0.00,,,0.00,weatherlink.com 1.10,2013-06-30 21:12:00,
2013-06-30 17:27:00,77.2,65.0,29.72,NNE,32,1.0,5.0,67,0.00,,,0.00,weatherlink.com 1.10,2013-06-30 21:27:00,
2013-06-30 17:42:00,76.4,65.0,29.73,NE,39,0.0,4.0,68,0.00,,,0.00,weatherlink.com 1.10,2013-06-30 21:42:00,
2013-06-30 17:57:00,75.7,66.0,29.73,NNE,28,4.0,4.0,71,0.00,,,0.00,weatherlink.com 1.10,2013-06-30 21:57:00,
2013-06-30 18:12:00,74.7,67.0,29.75,West,273,2.0,7.0,76,0.00,,,0.00,weatherlink.com 1.10,2013-06-30 22:12:00,
2013-06-30 18:27:00,71.5,68.0,29.76,West,281,1.0,4.0,88,0.19,,,0.19,weatherlink.com 1.10,2013-06-30 22:27:00,
2013-06-30 18:42:00,69.9,68.0,29.76,West,281,0.0,2.0,92,0.30,,,0.30,weatherlink.com 1.10,2013-06-30 22:42:00,
2013-06-30 18:57:00,69.3,67.0,29.75,West,281,0.0,1.0,93,0.32,,,0.32,weatherlink.com 1.10,2013-06-30 22:57:00,
2013-06-30 19:12:00,68.9,67.0,29.75,NNE,15,2.0,2.0,94,0.32,,,0.32,weatherlink.com 1.10,2013-06-30 23:12:00,
2013-06-30 19:27:00,69.2,68.0,29.76,NNW,342,0.0,1.0,94,0.12,,,0.32,weatherlink.com 1.10,2013-06-30 23:27:00,
2013-06-30 19:42:00,69.6,68.0,29.76,NNW,342,0.0,0.0,95,0.02,,,0.32,weatherlink.com 1.10,2013-06-30 23:42:00,
2013-06-30 19:58:00,69.6,68.0,29.76,NNW,342,0.0,0.0,95,0.00,,,0.32,weatherlink.com 1.10,2013-06-30 23:58:00,
2013-06-30 20:12:00,69.5,68.0,29.76,East,88,0.0,0.0,95,0.00,,,0.32,weatherlink.com 1.10,2013-07-01 00:12:00,
2013-06-30 20:27:00,69.8,68.0,29.77,East,88,0.0,0.0,95,0.00,,,0.32,weatherlink.com 1.10,2013-07-01 00:27:00,
2013-06-30 20:42:00,69.8,68.0,29.77,East,88,0.0,0.0,95,0.00,,,0.32,weatherlink.com 1.10,2013-07-01 00:42:00,
2013-06-30 20:57:00,69.6,68.0,29.77,East,88,0.0,0.0,95,0.00,,,0.32,weatherlink.com 1.10,2013-07-01 00:57:00,
2013-06-30 21:12:00,69.5,68.0,29.78,East,88,0.0,1.0,95,0.00,,,0.32,weatherlink.com 1.10,2013-07-01 01:12:00,
2013-06-30 21:27:00,69.4,68.0,29.78,East,88,0.0,0.0,95,0.00,,,0.32,weatherlink.com 1.10,2013-07-01 01:27:00,
2013-06-30 21:42:00,69.4,68.0,29.78,East,88,0.0,1.0,95,0.00,,,0.32,weatherlink.com 1.10,2013-07-01 01:42:00,
2013-06-30 21:57:00,69.2,68.0,29.78,East,86,0.0,0.0,94,0.00,,,0.32,weatherlink.com 1.10,2013-07-01 01:57:00,
2013-06-30 22:12:00,68.9,67.0,29.79,East,86,0.0,1.0,94,0.00,,,0.32,weatherlink.com 1.10,2013-07-01 02:12:00,
2013-06-30 22:27:00,68.8,67.0,29.79,ESE,113,0.0,1.0,93,0.00,,,0.32,weatherlink.com 1.10,2013-07-01 02:27:00,
2013-06-30 22:42:00,68.5,67.0,29.79,ESE,113,0.0,1.0,94,0.00,,,0.32,weatherlink.com 1.10,2013-07-01 02:42:00,
2013-06-30 22:57:00,68.3,67.0,29.80,ESE,111,0.0,1.0,94,0.00,,,0.32,weatherlink.com 1.10,2013-07-01 02:57:00,
2013-06-30 23:12:00,68.2,67.0,29.80,ESE,111,0.0,1.0,95,0.00,,,0.32,weatherlink.com 1.10,2013-07-01 03:12:00,
2013-06-30 23:27:00,68.3,67.0,29.80,NE,37,0.0,2.0,94,0.00,,,0.32,weatherlink.com 1.10,2013-07-01 03:27:00,
2013-06-30 23:42:00,68.4,67.0,29.80,NE,37,0.0,0.0,94,0.00,,,0.32,weatherlink.com 1.10,2013-07-01 03:42:00,
2013-06-30 23:57:00,68.3,67.0,29.79,NE,37,0.0,0.0,94,0.00,,,0.32,weatherlink.com 1.10,2013-07-01 03:57:00,